Starlink 11133

operational
NORAD ID: 59954 Int'l Des: 2024-107 Owner: SPXS Country: US Constellation: starlink
LEOCIRCULAR

Starlink 11133について

説明を読み込み中...

リアルタイム位置

3D地球を読み込み中...

次回通過

高度履歴

Altitude vs Time

uPlot chart will show altitude changes over time

軌道要素

1 59954U 24107K 26093.49372831 -.00003918 00000-0 -27534-4 0 9991
2 59954 53.1579 128.8461 0000879 63.1081 297.0026 15.69684200106045
Epoch: Apr 3, 2026 • Age: 19 hours

現在のステータス

高度 378.9 km
速度 7.68 km/s
衛星直下点 -53.31°S, 91.83°E
打ち上げ日 Jun 5, 2024
運用期間 1.8 years
タイプ internet

技術仕様

分類 Payload
質量 960.00 kg
乾燥質量 910.00 kg
総質量 960.00 kg
長さ 0.30 m
直径 4.10 m
スパン 29.00 m
形状 Box + pan
製造者 SPXS
バスタイプ Starlink V2MD
フェーズステータス In Orbit
所有者/国 SPXS/US

大規模コンステレーション

Loading constellations...